THORAD AGENA D DEB, 4734

Orbit data source: Space-Track

THORAD AGENA D DEB, 4734 is space debris in SSO originally from a launch on Wed, 08 Apr 1970 UTC launched from the Air Force Western Test Range (AFWTR). Debris objects in space refer to the collection of defunct objects orbiting the Earth. Examples of debris include non-operational satellites, rocket bodies, and fragments generated from explosions, collisions, or faulty payload assembly.

Loading next visibility...
Identifier
4734, 1970-025CH
Orbit
SSO
Country
Flag of USUS
Related business
Manufacturer
Unknown
Mission
Spacecraft
Bus & Motor
Unknown
Mass
Unknown
Launch date (UTC)
1970-04-08 (56 years ago)
Launch vehicle
Unknown
Launch site
Air Force Western Test Range (AFWTR)
Object type
Payload
Rocket body
Debris
Shape & HBR
Unknown shape, 0.1 m
Radar Cross Section
Small (<0.1 m²)

Expand to show TLE details & history
Last TLE update: 7 hours ago

TLE from 7 hours ago
0 THORAD AGENA D DEB
1  4734U 70025CH  26124.14479116  .00000581  00000-0  53004-3 0  9999
2  4734 100.1015 205.6493 0082977 115.9064 245.0671 13.86412390816463
Epoch: 2026-05-04T03:28Z
TLE epoch observation values (Epoch: 2026-05-04T03:28:29.956Z)
Latitude
-0.00003°
Longitude
-68.51371°
Altitude
970.072 km
Speed
7.354 km/s
True Right ascension
13h 42m 35s
True Declination
0° 00' 00"
Sunlit
Object was in full shadow at epoch
Visualization orbit readout
Latitude
Unknown
Longitude
Unknown
Altitude
Unknown
Speed
Unknown
Apparent Right ascension
Unknown
Apparent Declination
Unknown
Sunlit
N/A
Visualization observer readout
Local Sidereal Time
18:44:44
Azimuth
Unknown
Elevation
Unknown
Doppler factor
Unknown
Orbital elements
Apogee altitude
999.216 km
Perigee altitude
877.793 km
Semi-major axis
7,316.642 km
Eccentricity
0.0083
Inclination
100.1015°
RAAN
205.6493°
Arg. of periapsis
115.9064°
True anomaly
244.20866°
Mean anomaly
245.0671°
Eccentric anomaly
244.6375°
Mean motion
3.46797 °/min
Orbital period
103.81 mins
BSTAR
0.00053004
Loading maneuver chart data...
Computing Atmospheric mass density...

Documentation

Showing up to 5 results
|